This is the latest recevied weather packets stored in our database for station/object DN9EL-10. If no packets are shown the sender has not sent any weather packets the latest 10 day(s).
| Time | Temp. | Humidity | Pressure | Rain* | Wind** | Luminosity | Snow |
|---|---|---|---|---|---|---|---|
| 1777476537 | 20° C | 32% | 972.2 hPa | - | - | - | - |
| 1777475637 | 20° C | 32% | 972.3 hPa | - | - | - | - |
| 1777474737 | 20.56° C | 32% | 972.2 hPa | - | - | - | - |
| 1777473837 | 20° C | 31% | 972.3 hPa | - | - | - | - |
| 1777472937 | 20° C | 32% | 972.3 hPa | - | - | - | - |
| 1777472037 | 20° C | 32% | 972.2 hPa | - | - | - | - |
| 1777471136 | 20° C | 33% | 972.3 hPa | - | - | - | - |
| 1777470236 | 19.44° C | 33% | 972.3 hPa | - | - | - | - |
| 1777469336 | 18.89° C | 33% | 972.3 hPa | - | - | - | - |
| 1777468436 | 18.89° C | 34% | 972.1 hPa | - | - | - | - |
| 1777467536 | 18.33° C | 34% | 972.1 hPa | - | - | - | - |
| 1777466636 | 17.78° C | 36% | 972 hPa | - | - | - | - |
| 1777465736 | 17.22° C | 35% | 972 hPa | - | - | - | - |
| 1777464836 | 16.67° C | 37% | 972 hPa | - | - | - | - |
| 1777463936 | 16.11° C | 37% | 972 hPa | - | - | - | - |
| 1777463036 | 15° C | 38% | 972 hPa | - | - | - | - |
| 1777462136 | 14.44° C | 38% | 972 hPa | - | - | - | - |
| 1777461235 | 13.89° C | 40% | 971.8 hPa | - | - | - | - |
| 1777460335 | 13.33° C | 40% | 971.9 hPa | - | - | - | - |
| 1777459435 | 12.78° C | 40% | 972 hPa | - | - | - | - |
| 1777458535 | 11.67° C | 41% | 971.9 hPa | - | - | - | - |
| 1777457634 | 11.11° C | 41% | 972.1 hPa | - | - | - | - |
| 1777456734 | 10.56° C | 42% | 972.1 hPa | - | - | - | - |
| 1777455834 | 9.44° C | 43% | 972 hPa | - | - | - | - |
| 1777454934 | 8.89° C | 43% | 972.1 hPa | - | - | - | - |
* Rain since midnight (hover to see other rain measurements)
** Current wind speed in m/s (hover to see current wind gust speed)